EJU12TM LEPA-EDDB

Flight info

Callsign EJU12TM
Flight time 2h 15m
Altitude 36000
Route MEROS N853 LUMAS DCT MAXIR DCT LUSOL DCT BODRU DCT OKTET DCT IRMAR DCT KINES DCT VANAS DCT MOBLO DCT UBIMA DCT SOSAL DCT KORED DCT BERSU DCT DITON/N0431F370 DCT LOKTA DCT TEDGO DCT TIKNI T279 TAMEB T278 KLF KLF1R
Aircraft A320/M-SDE2E3FGHIJ1RWXYZ/LB1

Departure

Time 2026-05-05 07:47
Airport Palma de Mallorca Airport (LEPA)

Arrival

Time 2026-05-05 10:02
Airport Berlin Brandenburg Airport (EDDB)
Time Latitude Longitude Altitude Speed Heading
2026-05-05 07:16 39.55019 2.73489 37 ft 0 kts 165°
2026-05-05 07:38 39.55029 2.73486 37 ft 3 kts 161°
2026-05-05 07:38 39.55047 2.73476 37 ft 3 kts 143°
2026-05-05 07:38 39.55060 2.73459 37 ft 3 kts 105°
2026-05-05 07:39 39.55061 2.73443 38 ft 1 kts 59°
2026-05-05 07:39 39.55060 2.73441 38 ft 0 kts 58°
2026-05-05 07:41 39.55077 2.73476 37 ft 6 kts 58°
2026-05-05 07:41 39.55097 2.73519 38 ft 6 kts 58°
2026-05-05 07:42 39.55121 2.73570 37 ft 9 kts 58°
2026-05-05 07:42 39.55151 2.73630 38 ft 7 kts 58°
2026-05-05 07:42 39.55174 2.73715 38 ft 13 kts 98°
2026-05-05 07:42 39.55199 2.73807 38 ft 13 kts
2026-05-05 07:43 39.55293 2.73756 38 ft 17 kts 329°
2026-05-05 07:43 39.55408 2.73664 38 ft 22 kts 330°
2026-05-05 07:43 39.55504 2.73591 38 ft 12 kts 329°
2026-05-05 07:43 39.55590 2.73525 38 ft 17 kts 333°
2026-05-05 07:44 39.55692 2.73581 38 ft 20 kts 56°
2026-05-05 07:44 39.55775 2.73751 38 ft 25 kts 58°
2026-05-05 07:44 39.55859 2.73930 38 ft 23 kts 58°
2026-05-05 07:44 39.55943 2.74105 37 ft 15 kts 59°
2026-05-05 07:45 39.56010 2.74234 38 ft 19 kts 40°
2026-05-05 07:45 39.56116 2.74318 38 ft 15 kts 28°
2026-05-05 07:45 39.56218 2.74308 38 ft 18 kts 296°
2026-05-05 07:45 39.56205 2.74225 38 ft 0 kts 241°
2026-05-05 07:46 39.56188 2.74188 38 ft 24 kts 238°
2026-05-05 07:46 39.55951 2.73691 38 ft 100 kts 238°
2026-05-05 07:46 39.55481 2.72700 39 ft 155 kts 238°
2026-05-05 07:47 39.54868 2.71433 411 ft 174 kts 238°
2026-05-05 07:47 39.54222 2.70074 1157 ft 178 kts 238°
2026-05-05 07:47 39.53571 2.68690 1748 ft 185 kts 237°
2026-05-05 07:47 39.52853 2.67165 2060 ft 205 kts 237°
2026-05-05 07:48 39.52108 2.65583 2638 ft 211 kts 237°
2026-05-05 07:48 39.51342 2.63960 3406 ft 211 kts 237°
2026-05-05 07:48 39.50571 2.62328 4151 ft 214 kts 237°
2026-05-05 07:48 39.49653 2.60785 4684 ft 226 kts 218°
2026-05-05 07:49 39.48221 2.59717 4999 ft 250 kts 207°
2026-05-05 07:49 39.46527 2.59025 5573 ft 262 kts 185°
2026-05-05 07:49 39.44711 2.59396 6343 ft 271 kts 157°
2026-05-05 07:49 39.43219 2.60903 7096 ft 280 kts 128°
2026-05-05 07:50 39.42492 2.63256 7850 ft 290 kts 97°
2026-05-05 07:50 39.42813 2.65838 8586 ft 298 kts 64°
2026-05-05 07:50 39.44009 2.68049 9316 ft 304 kts 51°
2026-05-05 07:50 39.45371 2.70169 10032 ft 309 kts 50°
2026-05-05 07:51 39.46802 2.72343 10351 ft 329 kts 50°
2026-05-05 07:51 39.48341 2.74675 10574 ft 350 kts 50°
2026-05-05 07:51 39.49938 2.77109 11116 ft 359 kts 50°
2026-05-05 07:51 39.51558 2.79601 11753 ft 365 kts 50°
2026-05-05 07:52 39.53198 2.82147 12392 ft 370 kts 50°
2026-05-05 07:52 39.54855 2.84730 13037 ft 376 kts 50°
2026-05-05 07:52 39.56534 2.87349 13670 ft 380 kts 49°
2026-05-05 07:52 39.58235 2.90005 14228 ft 385 kts 49°
2026-05-05 07:53 39.59956 2.92699 14779 ft 389 kts 49°
2026-05-05 07:53 39.61689 2.95414 15341 ft 393 kts 49°
2026-05-05 07:53 39.63449 2.98165 15890 ft 398 kts 49°
2026-05-05 07:53 39.65223 3.00942 16442 ft 402 kts 49°
2026-05-05 07:54 39.67013 3.03747 16988 ft 406 kts 49°
2026-05-05 07:54 39.68826 3.06587 17525 ft 410 kts 49°
2026-05-05 07:54 39.70651 3.09446 18088 ft 413 kts 49°
2026-05-05 07:54 39.72489 3.12335 18577 ft 417 kts 49°
2026-05-05 07:55 39.74339 3.15253 19035 ft 420 kts 49°
2026-05-05 07:55 39.76209 3.18201 19510 ft 424 kts 49°
2026-05-05 07:55 39.78091 3.21167 19947 ft 428 kts 49°
2026-05-05 07:55 39.79996 3.24171 20382 ft 432 kts 49°
2026-05-05 07:56 39.81917 3.27202 20822 ft 436 kts 49°
2026-05-05 07:56 39.83850 3.30256 21258 ft 439 kts 49°
2026-05-05 07:56 39.85798 3.33339 21685 ft 443 kts 49°
2026-05-05 07:56 39.87761 3.36450 22113 ft 446 kts 49°
2026-05-05 07:57 39.89734 3.39579 22524 ft 449 kts 49°
2026-05-05 07:57 39.91725 3.42736 22947 ft 453 kts 49°
2026-05-05 07:57 39.93732 3.45917 23354 ft 456 kts 49°
2026-05-05 07:57 39.95749 3.49118 23719 ft 459 kts 49°
2026-05-05 07:58 39.97781 3.52352 24071 ft 462 kts 49°
2026-05-05 07:58 39.99825 3.55610 24366 ft 466 kts 49°
2026-05-05 07:58 40.01885 3.58898 24688 ft 469 kts 49°
2026-05-05 07:58 40.03955 3.62206 25018 ft 472 kts 49°
2026-05-05 07:59 40.06010 3.65494 25326 ft 475 kts 49°
2026-05-05 07:59 40.08103 3.68842 25656 ft 477 kts 49°
2026-05-05 07:59 40.10209 3.72207 25963 ft 480 kts 49°
2026-05-05 07:59 40.12328 3.75600 26287 ft 483 kts 49°
2026-05-05 08:00 40.14455 3.79011 26598 ft 486 kts 49°
2026-05-05 08:00 40.16593 3.82441 26912 ft 488 kts 49°
2026-05-05 08:00 40.18770 3.85941 27165 ft 492 kts 49°
2026-05-05 08:00 40.20936 3.89427 27414 ft 496 kts 49°
2026-05-05 08:01 40.23117 3.92945 27711 ft 498 kts 49°
2026-05-05 08:01 40.25275 3.96432 28007 ft 501 kts 49°
2026-05-05 08:01 40.27470 3.99991 28299 ft 503 kts 49°
2026-05-05 08:01 40.29673 4.03565 28589 ft 506 kts 49°
2026-05-05 08:02 40.31890 4.07156 28866 ft 508 kts 49°
2026-05-05 08:02 40.34117 4.10765 29141 ft 510 kts 49°
2026-05-05 08:02 40.36351 4.14388 29393 ft 513 kts 49°
2026-05-05 08:02 40.38597 4.18034 29647 ft 515 kts 49°
2026-05-05 08:03 40.40852 4.21699 29873 ft 518 kts 49°
2026-05-05 08:03 40.43121 4.25391 30006 ft 522 kts 49°
2026-05-05 08:03 40.45447 4.29065 30144 ft 524 kts 44°
2026-05-05 08:03 40.48103 4.32316 30353 ft 521 kts 34°
2026-05-05 08:04 40.51076 4.34993 30599 ft 515 kts 25°
2026-05-05 08:04 40.54273 4.37048 30855 ft 508 kts 15°
2026-05-05 08:04 40.57610 4.38444 31116 ft 500 kts
2026-05-05 08:04 40.61010 4.39298 31380 ft 497 kts
2026-05-05 08:05 40.64411 4.40098 31654 ft 496 kts
2026-05-05 08:05 40.67806 4.40901 31935 ft 496 kts
2026-05-05 08:05 40.71200 4.41712 32224 ft 495 kts
2026-05-05 08:05 40.74592 4.42528 32528 ft 495 kts
2026-05-05 08:06 40.77975 4.43346 32821 ft 494 kts
2026-05-05 08:06 40.81356 4.44165 33103 ft 494 kts
2026-05-05 08:06 40.84733 4.44986 33383 ft 494 kts
2026-05-05 08:06 40.88111 4.45805 33657 ft 493 kts
2026-05-05 08:07 40.91488 4.46622 33931 ft 493 kts
2026-05-05 08:07 40.94860 4.47438 34171 ft 493 kts
2026-05-05 08:07 40.98230 4.48252 34399 ft 492 kts
2026-05-05 08:07 41.01595 4.49065 34636 ft 492 kts
2026-05-05 08:08 41.04960 4.49879 34907 ft 491 kts
2026-05-05 08:08 41.08321 4.50693 35109 ft 491 kts
2026-05-05 08:08 41.11684 4.51508 35312 ft 491 kts
2026-05-05 08:08 41.15048 4.52328 35516 ft 491 kts
2026-05-05 08:09 41.18407 4.53147 35722 ft 491 kts
2026-05-05 08:09 41.21764 4.53965 35916 ft 490 kts
2026-05-05 08:09 41.25118 4.54788 36108 ft 490 kts
2026-05-05 08:09 41.28475 4.55617 36312 ft 490 kts
2026-05-05 08:10 41.31828 4.56442 36483 ft 490 kts
2026-05-05 08:10 41.35179 4.57264 36660 ft 490 kts
2026-05-05 08:10 41.38537 4.58089 36804 ft 490 kts
2026-05-05 08:10 41.41889 4.58911 36976 ft 490 kts
2026-05-05 08:11 41.44107 4.59454 37090 ft 490 kts
2026-05-05 08:11 41.47455 4.60274 37264 ft 489 kts
2026-05-05 08:11 41.50808 4.61098 37428 ft 490 kts
2026-05-05 08:11 41.54159 4.61925 37585 ft 489 kts
2026-05-05 08:12 41.57502 4.62752 37743 ft 489 kts
2026-05-05 08:12 41.60851 4.63581 37921 ft 489 kts
2026-05-05 08:12 41.67540 4.65229 37972 ft 489 kts
2026-05-05 08:13 41.74132 4.67616 37974 ft 497 kts 20°
2026-05-05 08:13 41.80202 4.72192 37969 ft 502 kts 28°
2026-05-05 08:14 41.86198 4.77003 37969 ft 502 kts 28°
2026-05-05 08:14 41.92191 4.81813 37989 ft 502 kts 28°
2026-05-05 08:15 41.98187 4.86654 37983 ft 503 kts 28°
2026-05-05 08:15 42.04177 4.91513 37981 ft 503 kts 28°
2026-05-05 08:16 42.10168 4.96371 37981 ft 503 kts 28°
2026-05-05 08:16 42.16157 5.01238 37983 ft 503 kts 28°
2026-05-05 08:17 42.22139 5.06113 37982 ft 502 kts 28°
2026-05-05 08:17 42.28119 5.11005 37980 ft 502 kts 28°
2026-05-05 08:18 42.34096 5.15898 37985 ft 503 kts 28°
2026-05-05 08:18 42.40077 5.20797 37984 ft 503 kts 28°
2026-05-05 08:19 42.46021 5.25676 37981 ft 503 kts 28°
2026-05-05 08:19 42.52032 5.30634 37993 ft 503 kts 28°
2026-05-05 08:20 42.57979 5.35551 37924 ft 504 kts 29°
2026-05-05 08:20 42.63975 5.40516 37934 ft 505 kts 29°
2026-05-05 08:21 42.69980 5.45493 37943 ft 506 kts 29°
2026-05-05 08:21 42.75986 5.50474 37946 ft 506 kts 29°
2026-05-05 08:22 42.81993 5.55470 37948 ft 506 kts 29°
2026-05-05 08:22 42.87996 5.60483 37955 ft 506 kts 29°
2026-05-05 08:23 42.94003 5.65529 37971 ft 507 kts 29°
2026-05-05 08:23 43.00013 5.70578 37970 ft 507 kts 29°
2026-05-05 08:24 43.03016 5.73108 37628 ft 506 kts 29°
2026-05-05 08:24 43.06013 5.75633 36900 ft 506 kts 29°
2026-05-05 08:24 43.09011 5.78159 36251 ft 507 kts 29°
2026-05-05 08:24 43.12023 5.80697 35990 ft 509 kts 29°
2026-05-05 08:25 43.18078 5.85800 35949 ft 512 kts 29°
2026-05-05 08:25 43.24147 5.90937 35945 ft 513 kts 29°
2026-05-05 08:26 43.30209 5.96092 35948 ft 514 kts 29°
2026-05-05 08:26 43.36294 6.01246 35956 ft 513 kts 26°
2026-05-05 08:27 43.39534 6.03237 35960 ft 507 kts 13°
2026-05-05 08:27 43.42935 6.04359 35959 ft 500 kts
2026-05-05 08:27 43.49829 6.05104 35959 ft 497 kts 358°
2026-05-05 08:28 43.56730 6.05778 35958 ft 497 kts 358°
2026-05-05 08:28 43.63638 6.06469 35954 ft 497 kts 358°
2026-05-05 08:29 43.70535 6.07167 35952 ft 497 kts 358°
2026-05-05 08:30 43.80710 6.10252 35958 ft 512 kts 23°
2026-05-05 08:30 43.87044 6.14599 35982 ft 503 kts 22°
2026-05-05 08:31 43.93299 6.18851 35961 ft 500 kts 22°
2026-05-05 08:31 43.99550 6.23114 35956 ft 500 kts 22°
2026-05-05 08:32 44.05789 6.27394 35979 ft 501 kts 23°
2026-05-05 08:32 44.12028 6.31686 35961 ft 500 kts 23°
2026-05-05 08:33 44.18264 6.35981 35955 ft 500 kts 23°
2026-05-05 08:33 44.24493 6.40286 35970 ft 500 kts 23°
2026-05-05 08:34 44.30701 6.44582 35957 ft 497 kts 23°
2026-05-05 08:34 44.36898 6.48866 35971 ft 496 kts 23°
2026-05-05 08:35 44.43077 6.53155 35981 ft 495 kts 24°
2026-05-05 08:35 44.49220 6.57438 35962 ft 492 kts 24°
2026-05-05 08:36 44.55335 6.61714 35965 ft 491 kts 24°
2026-05-05 08:36 44.61455 6.65999 35966 ft 491 kts 24°
2026-05-05 08:37 44.67567 6.70289 35977 ft 491 kts 24°
2026-05-05 08:37 44.73645 6.74561 35976 ft 491 kts 24°
2026-05-05 08:38 44.79942 6.78117 35999 ft 484 kts
2026-05-05 08:38 44.83302 6.78744 35974 ft 478 kts 357°
2026-05-05 08:38 44.86615 6.78625 35984 ft 475 kts 352°
2026-05-05 08:39 44.93225 6.78168 35983 ft 476 kts 353°
2026-05-05 08:39 44.99803 6.77733 35990 ft 476 kts 353°
2026-05-05 08:40 45.06435 6.77301 35988 ft 478 kts 353°
2026-05-05 08:40 45.13071 6.76861 35966 ft 477 kts 353°
2026-05-05 08:41 45.19646 6.76426 35977 ft 471 kts 353°
2026-05-05 08:41 45.26194 6.75998 35957 ft 471 kts 353°
2026-05-05 08:42 45.32739 6.75562 35950 ft 471 kts 353°
2026-05-05 08:42 45.39293 6.75117 35946 ft 471 kts 353°
2026-05-05 08:43 45.45844 6.74675 35944 ft 472 kts 353°
2026-05-05 08:43 45.52401 6.74236 35940 ft 472 kts 353°
2026-05-05 08:44 45.58966 6.73782 35948 ft 473 kts 354°
2026-05-05 08:44 45.65534 6.73326 35920 ft 472 kts 354°
2026-05-05 08:45 45.72102 6.72870 35921 ft 473 kts 354°
2026-05-05 08:45 45.78669 6.72430 35931 ft 472 kts 354°
2026-05-05 08:46 45.85232 6.71984 35923 ft 472 kts 354°
2026-05-05 08:46 45.91791 6.71536 35933 ft 473 kts 354°
2026-05-05 08:47 45.98375 6.71083 35926 ft 473 kts 354°
2026-05-05 08:47 46.04963 6.70636 35920 ft 474 kts 354°
2026-05-05 08:48 46.11569 6.70359 35914 ft 476 kts
2026-05-05 08:48 46.14847 6.71071 35908 ft 478 kts 13°
2026-05-05 08:48 46.18050 6.72397 35912 ft 479 kts 15°
2026-05-05 08:49 46.24440 6.75111 35906 ft 478 kts 15°
2026-05-05 08:49 46.30826 6.77794 35909 ft 478 kts 15°
2026-05-05 08:50 46.37209 6.80495 35904 ft 478 kts 15°
2026-05-05 08:50 46.43587 6.83208 35901 ft 477 kts 15°
2026-05-05 08:51 46.49948 6.85925 35881 ft 476 kts 15°
2026-05-05 08:51 46.53045 6.87598 35911 ft 477 kts 26°
2026-05-05 08:51 46.55893 6.90049 35909 ft 476 kts 37°
2026-05-05 08:51 46.58383 6.93198 35911 ft 474 kts 49°
2026-05-05 08:52 46.60498 6.96857 35917 ft 473 kts 53°
2026-05-05 08:52 46.64630 7.04326 35914 ft 473 kts 53°
2026-05-05 08:53 46.68765 7.11786 35916 ft 473 kts 53°
2026-05-05 08:53 46.72898 7.19256 35917 ft 474 kts 53°
2026-05-05 08:54 46.77022 7.26727 35900 ft 472 kts 53°
2026-05-05 08:54 46.81122 7.34194 35896 ft 471 kts 53°
2026-05-05 08:55 46.84515 7.40408 35893 ft 471 kts 53°
2026-05-05 08:55 46.88599 7.47895 35893 ft 471 kts 53°
2026-05-05 08:56 46.92679 7.55389 35914 ft 471 kts 53°
2026-05-05 08:56 46.96755 7.62893 35914 ft 471 kts 54°
2026-05-05 08:57 47.00819 7.70415 35918 ft 471 kts 54°
2026-05-05 08:57 47.04881 7.77955 35915 ft 471 kts 54°
2026-05-05 08:58 47.08940 7.85509 35909 ft 471 kts 54°
2026-05-05 08:58 47.12989 7.93069 35903 ft 470 kts 55°
2026-05-05 08:59 47.16535 8.01080 35904 ft 468 kts 61°
2026-05-05 08:59 47.19993 8.09188 35904 ft 468 kts 61°
2026-05-05 09:00 47.23445 8.17301 35906 ft 468 kts 61°
2026-05-05 09:00 47.26892 8.25426 35909 ft 468 kts 61°
2026-05-05 09:01 47.30749 8.33156 35906 ft 472 kts 46°
2026-05-05 09:01 47.33229 8.36224 35901 ft 473 kts 35°
2026-05-05 09:01 47.35989 8.38884 35902 ft 474 kts 34°
2026-05-05 09:02 47.41515 8.44194 35917 ft 474 kts 34°
2026-05-05 09:02 47.47024 8.49549 35921 ft 474 kts 34°
2026-05-05 09:03 47.52556 8.54949 35920 ft 473 kts 34°
2026-05-05 09:03 47.58061 8.60305 35917 ft 473 kts 34°
2026-05-05 09:04 47.63523 8.65624 35909 ft 473 kts 34°
2026-05-05 09:04 47.69011 8.71009 35911 ft 473 kts 35°
2026-05-05 09:05 47.74506 8.76412 35892 ft 474 kts 34°
2026-05-05 09:05 47.80004 8.81819 35881 ft 474 kts 34°
2026-05-05 09:06 47.85496 8.87232 35882 ft 474 kts 34°
2026-05-05 09:06 47.90991 8.92663 35861 ft 474 kts 34°
2026-05-05 09:07 47.96473 8.98109 35873 ft 473 kts 34°
2026-05-05 09:07 48.01954 9.03565 35872 ft 473 kts 34°
2026-05-05 09:08 48.07427 9.09027 35871 ft 473 kts 34°
2026-05-05 09:08 48.12917 9.14515 35870 ft 475 kts 33°
2026-05-05 09:08 48.15821 9.16883 35871 ft 476 kts 22°
2026-05-05 09:09 48.18956 9.18451 35871 ft 475 kts 11°
2026-05-05 09:09 48.25489 9.19737 35869 ft 474 kts
2026-05-05 09:10 48.32046 9.20843 35869 ft 474 kts
2026-05-05 09:10 48.38594 9.21964 35868 ft 474 kts
2026-05-05 09:11 48.45151 9.23082 35867 ft 473 kts
2026-05-05 09:11 48.51704 9.24196 35866 ft 474 kts
2026-05-05 09:12 48.58256 9.25305 35866 ft 474 kts
2026-05-05 09:12 48.64768 9.26867 35867 ft 475 kts 11°
2026-05-05 09:13 48.71223 9.29015 35870 ft 475 kts 11°
2026-05-05 09:13 48.77670 9.31168 35866 ft 474 kts 11°
2026-05-05 09:14 48.84121 9.33315 35864 ft 474 kts 11°
2026-05-05 09:14 48.90522 9.35452 35867 ft 474 kts 11°
2026-05-05 09:15 48.97003 9.37616 35873 ft 473 kts 10°
2026-05-05 09:15 49.03385 9.39754 35878 ft 472 kts 11°
2026-05-05 09:16 49.09805 9.41928 35881 ft 472 kts 11°
2026-05-05 09:16 49.16226 9.44085 35882 ft 472 kts 10°
2026-05-05 09:17 49.22644 9.46246 35870 ft 472 kts 10°
2026-05-05 09:17 49.29060 9.48424 35874 ft 472 kts 10°
2026-05-05 09:18 49.35472 9.50611 35877 ft 472 kts 10°
2026-05-05 09:18 49.41884 9.52804 35878 ft 472 kts 10°
2026-05-05 09:19 49.48294 9.54990 35878 ft 472 kts 10°
2026-05-05 09:19 49.54713 9.57169 35878 ft 472 kts 10°
2026-05-05 09:20 49.61118 9.59369 35875 ft 472 kts 10°
2026-05-05 09:20 49.67533 9.61588 35871 ft 472 kts 10°
2026-05-05 09:21 49.73939 9.63813 35870 ft 472 kts 10°
2026-05-05 09:21 49.80348 9.66036 35880 ft 472 kts 10°
2026-05-05 09:22 49.86758 9.68260 35871 ft 472 kts 10°
2026-05-05 09:22 49.93170 9.70481 35870 ft 472 kts 10°
2026-05-05 09:23 49.99577 9.72718 35871 ft 472 kts 10°
2026-05-05 09:23 50.05985 9.74961 35869 ft 472 kts
2026-05-05 09:24 50.12391 9.77205 35872 ft 472 kts
2026-05-05 09:24 50.18791 9.79471 35871 ft 472 kts
2026-05-05 09:25 50.25196 9.81736 35875 ft 472 kts
2026-05-05 09:25 50.31607 9.83996 35867 ft 472 kts
2026-05-05 09:26 50.37980 9.86548 35870 ft 476 kts 19°
2026-05-05 09:26 50.40964 9.88830 35875 ft 479 kts 30°
2026-05-05 09:26 50.43651 9.91915 35872 ft 480 kts 41°
2026-05-05 09:27 50.48298 9.99450 35872 ft 481 kts 46°
2026-05-05 09:27 50.52884 10.07108 35879 ft 481 kts 46°
2026-05-05 09:28 50.57448 10.14722 35881 ft 481 kts 46°
2026-05-05 09:28 50.62031 10.22393 35884 ft 481 kts 46°
2026-05-05 09:29 50.66256 10.30538 35885 ft 480 kts 61°
2026-05-05 09:29 50.69430 10.39783 35891 ft 479 kts 63°
2026-05-05 09:30 50.72593 10.49043 35894 ft 479 kts 63°
2026-05-05 09:30 50.75761 10.58301 35897 ft 479 kts 63°
2026-05-05 09:31 50.77540 10.63494 35904 ft 479 kts 63°
2026-05-05 09:31 50.80705 10.72765 35905 ft 479 kts 63°
2026-05-05 09:32 50.83857 10.82056 35927 ft 480 kts 62°
2026-05-05 09:32 50.87006 10.91375 35905 ft 479 kts 63°
2026-05-05 09:32 50.88568 10.96012 35520 ft 474 kts 63°
2026-05-05 09:33 50.90109 11.00599 35065 ft 470 kts 63°
2026-05-05 09:33 50.91636 11.05157 34621 ft 466 kts 63°
2026-05-05 09:33 50.93148 11.09670 34177 ft 462 kts 63°
2026-05-05 09:33 50.94626 11.14097 33716 ft 459 kts 63°
2026-05-05 09:34 50.96129 11.18614 33212 ft 455 kts 63°
2026-05-05 09:34 50.97575 11.22967 32732 ft 451 kts 63°
2026-05-05 09:34 50.99032 11.27356 32241 ft 447 kts 63°
2026-05-05 09:34 51.00481 11.31711 31789 ft 444 kts 63°
2026-05-05 09:35 51.01915 11.36031 31326 ft 440 kts 63°
2026-05-05 09:35 51.04747 11.44591 30374 ft 435 kts 62°
2026-05-05 09:35 51.06144 11.48837 29919 ft 432 kts 62°
2026-05-05 09:36 51.07531 11.53054 29417 ft 429 kts 62°
2026-05-05 09:36 51.08905 11.57248 28930 ft 425 kts 63°
2026-05-05 09:36 51.10260 11.61403 28454 ft 422 kts 63°
2026-05-05 09:36 51.11605 11.65525 27982 ft 418 kts 63°
2026-05-05 09:37 51.12943 11.69621 27520 ft 415 kts 63°
2026-05-05 09:37 51.14267 11.73678 27068 ft 411 kts 63°
2026-05-05 09:37 51.15582 11.77709 26623 ft 408 kts 63°
2026-05-05 09:37 51.16882 11.81705 26184 ft 405 kts 63°
2026-05-05 09:38 51.18169 11.85677 25759 ft 402 kts 63°
2026-05-05 09:38 51.19443 11.89622 25324 ft 399 kts 63°
2026-05-05 09:38 51.20791 11.93458 24924 ft 396 kts 56°
2026-05-05 09:38 51.22442 11.96948 24507 ft 392 kts 47°
2026-05-05 09:39 51.24307 12.00099 24071 ft 389 kts 45°
2026-05-05 09:39 51.26171 12.03210 23666 ft 387 kts 45°
2026-05-05 09:39 51.28020 12.06314 23239 ft 384 kts 45°
2026-05-05 09:39 51.29849 12.09403 22789 ft 382 kts 45°
2026-05-05 09:40 51.31668 12.12475 22327 ft 379 kts 45°
2026-05-05 09:40 51.33479 12.15531 21890 ft 377 kts 45°
2026-05-05 09:40 51.35280 12.18573 21463 ft 375 kts 45°
2026-05-05 09:40 51.37066 12.21597 21095 ft 373 kts 45°
2026-05-05 09:41 51.38845 12.24613 20674 ft 371 kts 45°
2026-05-05 09:41 51.40612 12.27610 20284 ft 369 kts 46°
2026-05-05 09:41 51.42372 12.30600 19887 ft 368 kts 46°
2026-05-05 09:41 51.44119 12.33572 19498 ft 366 kts 46°
2026-05-05 09:42 51.45272 12.35537 19255 ft 365 kts 46°
2026-05-05 09:42 51.47009 12.38497 18892 ft 363 kts 46°
2026-05-05 09:42 51.48734 12.41440 18528 ft 362 kts 46°
2026-05-05 09:42 51.50454 12.44374 18157 ft 360 kts 46°
2026-05-05 09:43 51.52165 12.47297 17757 ft 358 kts 46°
2026-05-05 09:43 51.53861 12.50206 17382 ft 356 kts 46°
2026-05-05 09:43 51.55545 12.53095 17028 ft 353 kts 46°
2026-05-05 09:43 51.57219 12.55966 16696 ft 351 kts 46°
2026-05-05 09:44 51.58882 12.58818 16439 ft 348 kts 46°
2026-05-05 09:44 51.60533 12.61656 16128 ft 346 kts 46°
2026-05-05 09:44 51.62175 12.64482 15822 ft 344 kts 46°
2026-05-05 09:44 51.63796 12.67275 15318 ft 340 kts 46°
2026-05-05 09:45 51.65402 12.70044 14788 ft 337 kts 46°
2026-05-05 09:45 51.66990 12.72787 14275 ft 333 kts 46°
2026-05-05 09:45 51.68031 12.74588 13935 ft 330 kts 46°
2026-05-05 09:46 51.73121 12.83398 11935 ft 318 kts 46°
2026-05-05 09:46 51.74621 12.86003 11334 ft 315 kts 46°
2026-05-05 09:46 51.76106 12.88580 10740 ft 312 kts 46°
2026-05-05 09:47 51.77557 12.91158 10155 ft 309 kts 51°
2026-05-05 09:47 51.78750 12.94007 9617 ft 305 kts 59°
2026-05-05 09:47 51.79833 12.96928 9083 ft 301 kts 59°
2026-05-05 09:47 51.80911 12.99804 8559 ft 298 kts 59°
2026-05-05 09:48 51.81983 13.02645 7981 ft 295 kts 58°
2026-05-05 09:48 51.83045 13.05459 7378 ft 292 kts 58°
2026-05-05 09:48 51.84099 13.08257 6898 ft 291 kts 58°
2026-05-05 09:48 51.85143 13.11036 6546 ft 288 kts 58°
2026-05-05 09:49 51.86179 13.13800 6218 ft 287 kts 58°
2026-05-05 09:49 51.87208 13.16552 5862 ft 284 kts 59°
2026-05-05 09:49 51.88223 13.19277 5487 ft 281 kts 59°
2026-05-05 09:49 51.89227 13.21975 5117 ft 279 kts 59°
2026-05-05 09:50 51.90221 13.24637 4999 ft 275 kts 59°
2026-05-05 09:50 51.91215 13.27307 5005 ft 277 kts 59°
2026-05-05 09:50 51.92208 13.29982 5006 ft 277 kts 59°
2026-05-05 09:50 51.93196 13.32651 5006 ft 276 kts 59°
2026-05-05 09:51 51.94173 13.35285 5006 ft 276 kts 59°
2026-05-05 09:51 51.95162 13.37958 5007 ft 276 kts 59°
2026-05-05 09:51 51.96151 13.40625 5010 ft 276 kts 59°
2026-05-05 09:51 51.97142 13.43298 5011 ft 277 kts 59°
2026-05-05 09:52 51.98274 13.45809 5012 ft 276 kts 44°
2026-05-05 09:52 51.99841 13.47580 5019 ft 276 kts 24°
2026-05-05 09:52 52.01680 13.48377 5017 ft 274 kts
2026-05-05 09:52 52.03565 13.48120 5018 ft 273 kts 343°
2026-05-05 09:53 52.05283 13.46862 5017 ft 271 kts 324°
2026-05-05 09:53 52.06634 13.44771 5009 ft 268 kts 304°
2026-05-05 09:53 52.07667 13.42252 5009 ft 266 kts 302°
2026-05-05 09:53 52.08655 13.39808 5006 ft 250 kts 302°
2026-05-05 09:54 52.09582 13.37512 5006 ft 236 kts 302°
2026-05-05 09:54 52.10465 13.35331 5012 ft 227 kts 301°
2026-05-05 09:54 52.11327 13.33194 5012 ft 225 kts 301°
2026-05-05 09:54 52.12185 13.31063 5014 ft 225 kts 301°
2026-05-05 09:55 52.13045 13.28927 5014 ft 225 kts 301°
2026-05-05 09:55 52.13900 13.26807 4908 ft 223 kts 301°
2026-05-05 09:55 52.14750 13.24691 4612 ft 224 kts 302°
2026-05-05 09:55 52.15682 13.22661 4326 ft 224 kts 313°
2026-05-05 09:56 52.16879 13.21046 4034 ft 225 kts 327°
2026-05-05 09:56 52.18283 13.19930 3795 ft 225 kts 338°
2026-05-05 09:56 52.19733 13.19011 3513 ft 224 kts 337°
2026-05-05 09:56 52.21181 13.18085 3261 ft 223 kts 337°
2026-05-05 09:57 52.22601 13.17178 3067 ft 221 kts 337°
2026-05-05 09:57 52.24052 13.16253 3005 ft 221 kts 338°
2026-05-05 09:57 52.25486 13.15530 2995 ft 215 kts 356°
2026-05-05 09:57 52.26869 13.16179 3005 ft 202 kts 38°
2026-05-05 09:58 52.27611 13.17967 3042 ft 184 kts 71°
2026-05-05 09:58 52.28057 13.19877 3047 ft 177 kts 68°
2026-05-05 09:58 52.28519 13.21734 3021 ft 175 kts 68°
2026-05-05 09:58 52.28967 13.23575 3006 ft 175 kts 69°
2026-05-05 09:59 52.29408 13.25397 2881 ft 174 kts 69°
2026-05-05 09:59 52.29855 13.27255 2687 ft 173 kts 69°
2026-05-05 09:59 52.30288 13.29057 2461 ft 172 kts 69°
2026-05-05 09:59 52.30730 13.30899 2236 ft 171 kts 69°
2026-05-05 10:00 52.31164 13.32707 2004 ft 170 kts 69°
2026-05-05 10:00 52.31590 13.34486 1782 ft 170 kts 69°
2026-05-05 10:00 52.32021 13.36285 1542 ft 170 kts 69°
2026-05-05 10:00 52.32455 13.38103 1283 ft 169 kts 69°
2026-05-05 10:01 52.32870 13.39866 1048 ft 168 kts 69°
2026-05-05 10:01 52.33285 13.41634 824 ft 165 kts 68°
2026-05-05 10:01 52.33719 13.43368 637 ft 164 kts 67°
2026-05-05 10:01 52.34142 13.45123 419 ft 163 kts 69°
2026-05-05 10:02 52.34540 13.46814 257 ft 161 kts 68°
2026-05-05 10:02 52.34940 13.48513 174 ft 160 kts 68°
2026-05-05 10:02 52.35312 13.50057 154 ft 100 kts 69°
2026-05-05 10:02 52.35447 13.50620 154 ft 16 kts 69°
2026-05-05 10:03 52.35461 13.50681 154 ft 10 kts 72°
2026-05-05 10:03 52.35505 13.50875 154 ft 24 kts 68°
2026-05-05 10:03 52.35569 13.51140 154 ft 26 kts 69°
2026-05-05 10:03 52.35635 13.51421 154 ft 27 kts 69°
2026-05-05 10:04 52.35704 13.51710 154 ft 25 kts 69°
2026-05-05 10:04 52.35765 13.51979 155 ft 26 kts 69°
2026-05-05 10:04 52.35822 13.52197 155 ft 20 kts 48°
2026-05-05 10:04 52.35948 13.52211 155 ft 15 kts 339°
2026-05-05 10:05 52.36050 13.52145 155 ft 16 kts 338°
2026-05-05 10:05 52.36103 13.52047 155 ft 12 kts 270°
2026-05-05 10:05 52.36085 13.51927 155 ft 10 kts 267°
2026-05-05 10:05 52.36113 13.51838 155 ft 8 kts 309°
2026-05-05 10:06 52.36121 13.51815 155 ft 0 kts 301°
2026-05-05 10:07 52.36123 13.51810 155 ft 3 kts 301°
2026-05-05 10:07 52.36124 13.51708 155 ft 14 kts 252°
2026-05-05 10:07 52.36084 13.51528 155 ft 18 kts 250°
2026-05-05 10:08 52.36048 13.51372 155 ft 12 kts 248°
2026-05-05 10:08 52.36025 13.51278 155 ft 3 kts 248°
2026-05-05 10:08 52.36028 13.51214 155 ft 9 kts 316°
2026-05-05 10:08 52.36073 13.51189 155 ft 0 kts 341°
2026-05-05 10:09 52.36086 13.51182 155 ft 2 kts 342°
2026-05-05 10:09 52.36098 13.51175 155 ft 0 kts 340°